Back to catalog

HCT-SAT2

AliveScienceSSO
NORAD 66676·PAYLOAD·🇸🇦 Saudi Arabia
This satellite name has not been confirmed by official sources yet.

Launched Nov 28, 2025 from Vandenberg Space Force Base

Loading…

Next Passes (next 24 hours)

TLE

FreshSource: Space-Track

Epoch: Sep 14, 2026, 11:15 UTC

1 66676U 25276L   26257.46935311  .00003905  00000-0  18576-3 0  9994
2 66676  97.4099 329.1293 0007113  61.8488 298.3465 15.19741640 43964

Track HCT-SAT2 in real time with AllMySat

Download on the App Store